Location: Ay?beleni
(36.6500°N, 30.3000°E)
Time: 00:13:02
(UTC+00:00)

SPACEBEE-64 - Visible Passes

Search period start: 11 August 2022 00:00
Search period end: 21 August 2022 00:00
Orbit: 479 x 498 km, 97.2° (Epoch: 09 August)

Date Brightness Start Highest point End Pass type
(mag) Time Alt. Az. Time Alt. Az. Time Alt. Az.
11 Aug ? 18:43:47 18° SSW 18:45:51 33° W 18:49:08 10° NNW visible
12 Aug ? 18:20:25 22° S 18:22:36 75° W 18:26:11 10° NNW visible
13 Aug ? 17:57:01 18° SE 17:59:23 49° ENE 18:02:50 10° N visible
14 Aug ? 17:33:34 11° ESE 17:36:12 24° ENE 17:39:05 10° NNE visible
14 Aug ? 19:08:00 13° SW 19:09:40 16° W 19:12:00 10° NW visible
15 Aug ? 18:44:30 21° SW 18:46:12 33° W 18:49:28 10° NNW visible
16 Aug ? 18:20:57 27° S 18:22:46 73° W 18:26:21 10° NNW visible
17 Aug ? 17:57:22 22° SE 17:59:22 49° ENE 18:02:49 10° N visible
18 Aug ? 17:33:45 14° ESE 17:35:59 24° ENE 17:38:53 10° NNE visible
18 Aug ? 19:08:10 14° WSW 19:09:27 16° W 19:11:46 10° NW visible
19 Aug ? 17:11:06 10° E 17:12:37 12° ENE 17:14:09 10° NE visible
19 Aug ? 18:44:29 25° SW 18:45:48 33° W 18:49:03 10° NNW visible
20 Aug ? 18:20:46 34° S 18:22:10 74° WSW 18:25:45 10° NNW visible
